Farmville, Virginia, United States (23901)
Lat: 37.30N, Lon: 78.39W
Wx Zone: VAZ060
Local Info
Past Weather Observations for Today

NOTE: This archive is for the closest National Weather Service station to Farmville. Information may differ from the station used for current weather conditions.

Time Weather Temperature Dewpoint Humidity Pressure Winds Precip Visibility
19:55
Clear
57°F / 14°C 28°F / -2°C 33% 29.92 in
(1013 mb)
N 6.9 mph
(N 11 kph)
- 10SM
19:35
Clear
59°F / 15°C 28°F / -2°C 31% 29.92 in
(1013 mb)
N 6.9 mph
(N 11 kph)
- 10SM
19:15
Clear
61°F / 16°C 28°F / -2°C 29% 29.89 in
(1012 mb)
N 4.6 mph
(N 7 kph)
- 10SM
18:55
Clear
61°F / 16°C 28°F / -2°C 29% 29.89 in
(1012 mb)
N 3.5 mph
(N 6 kph)
- 10SM
18:35
Clear
63°F / 17°C 28°F / -2°C 27% 29.86 in
(1011 mb)
NNE 6.9 mph
(NNE 11 kph)
- 10SM
18:15
Clear
64°F / 18°C 28°F / -2°C 26% 29.86 in
(1011 mb)
NNE 6.9 mph
(NNE 11 kph)
- 10SM
17:55
Clear
64°F / 18°C 30°F / -1°C 28% 29.83 in
(1010 mb)
N 4.6 mph
(N 7 kph)
- 10SM
17:35
Clear
66°F / 19°C 30°F / -1°C 26% 29.83 in
(1010 mb)
N 6.9 mph
(N 11 kph)
- 10SM
17:15
Clear
66°F / 19°C 28°F / -2°C 24% 29.83 in
(1010 mb)
N 5.8 mph
(N 9 kph)
- 10SM
16:55
Clear
68°F / 20°C 30°F / -1°C 24% 29.83 in
(1010 mb)
N 6.9 mph
(N 11 kph)
- 10SM
16:35
Clear
68°F / 20°C 30°F / -1°C 24% 29.83 in
(1010 mb)
NE 6.9 mph
(NE 11 kph)
- 10SM
16:15
Clear
68°F / 20°C 30°F / -1°C 24% 29.8 in
(1009 mb)
N 10.4 mph
(N 17 kph)
- 10SM
15:55
Clear
68°F / 20°C 30°F / -1°C 24% 29.8 in
(1009 mb)
N 5.8 mph
(N 9 kph)
- 10SM
15:35
Clear
68°F / 20°C 30°F / -1°C 24% 29.8 in
(1009 mb)
NNW 4.6 mph
(NNW 7 kph)
- 10SM
15:15
Clear
70°F / 21°C 30°F / -1°C 23% 29.8 in
(1009 mb)
NW 5.8 mph
(NW 9 kph)
- 10SM
14:55
Clear
68°F / 20°C 28°F / -2°C 23% 29.8 in
(1009 mb)
NNE 6.9 mph
(NNE 11 kph)
- 10SM
14:35
Clear
70°F / 21°C 30°F / -1°C 23% 29.8 in
(1009 mb)
NNE 10.4 mph
(NNE 17 kph)
- 10SM
14:15
Clear
68°F / 20°C 28°F / -2°C 23% 29.8 in
(1009 mb)
NE 4.6 mph
(NE 7 kph)
- 10SM
13:55
Clear
66°F / 19°C 28°F / -2°C 24% 29.8 in
(1009 mb)
NNW 5.8 mph
(NNW 9 kph)
- 10SM
13:35
Clear
66°F / 19°C 28°F / -2°C 24% 29.8 in
(1009 mb)
NNE 8.1 mph
(NNE 13 kph)
- 10SM
13:15
Clear
66°F / 19°C 28°F / -2°C 24% 29.8 in
(1009 mb)
NNE 12.7 mph
(NNE 20 kph)
- 10SM
12:35
Clear
66°F / 19°C 28°F / -2°C 24% 29.83 in
(1010 mb)
NNW 6.9 mph
(NNW 11 kph)
- 10SM
12:15
Clear
64°F / 18°C 28°F / -2°C 26% 29.8 in
(1009 mb)
N 6.9 mph
(N 11 kph)
- 10SM
11:55
Partly Cloudy
64°F / 18°C 28°F / -2°C 26% 29.83 in
(1010 mb)
N 8.1 mph
(N 13 kph)
- 10SM
11:35
Partly Cloudy
64°F / 18°C 30°F / -1°C 28% 29.83 in
(1010 mb)
NNE 9.2 mph
(NNE 15 kph)
- 10SM
11:15
Clear
63°F / 17°C 30°F / -1°C 30% 29.83 in
(1010 mb)
NNE 9.2 mph
(NNE 15 kph)
- 10SM
10:55
Clear
63°F / 17°C 28°F / -2°C 27% 29.83 in
(1010 mb)
N 6.9 mph
(N 11 kph)
- 10SM
10:35
Partly Cloudy
63°F / 17°C 30°F / -1°C 30% 29.83 in
(1010 mb)
N 10.4 mph
(N 17 kph)
- 10SM
10:15
Mostly Cloudy
61°F / 16°C 30°F / -1°C 31% 29.83 in
(1010 mb)
NW 5.8 mph
(NW 9 kph)
- 10SM
09:55
Partly Cloudy
61°F / 16°C 30°F / -1°C 31% 29.83 in
(1010 mb)
NW 9.2 mph
(NW 15 kph)
- 10SM
09:35
Partly Cloudy
61°F / 16°C 34°F / 1°C 36% 29.83 in
(1010 mb)
NNW 5.8 mph
(NNW 9 kph)
- 10SM
09:15
Clear
61°F / 16°C 30°F / -1°C 31% 29.83 in
(1010 mb)
Calm - 10SM
08:55
Clear
59°F / 15°C 34°F / 1°C 39% 29.8 in
(1009 mb)
NW 4.6 mph
(NW 7 kph)
- 10SM
08:35
Clear
59°F / 15°C 32°F / 0°C 36% 29.8 in
(1009 mb)
NNE 8.1 mph
(NNE 13 kph)
- 10SM
08:15
Clear
57°F / 14°C 34°F / 1°C 41% 29.8 in
(1009 mb)
W 4.6 mph
(W 7 kph)
- 10SM
07:55
Clear
57°F / 14°C 34°F / 1°C 41% 29.8 in
(1009 mb)
N 6.9 mph
(N 11 kph)
- 10SM
07:35
Clear
57°F / 14°C 37°F / 3°C 48% 29.8 in
(1009 mb)
NNW 5.8 mph
(NNW 9 kph)
- 10SM
07:15
Clear
55°F / 13°C 45°F / 7°C 67% 29.8 in
(1009 mb)
Calm - 10SM
06:55
Clear
54°F / 12°C 45°F / 7°C 72% 29.77 in
(1008 mb)
Calm - 10SM
06:35
Clear
52°F / 11°C 45°F / 7°C 77% 29.77 in
(1008 mb)
Calm - 10SM
06:15
Clear
52°F / 11°C 45°F / 7°C 77% 29.77 in
(1008 mb)
Calm - 10SM
05:55
Clear
52°F / 11°C 46°F / 8°C 82% 29.77 in
(1008 mb)
Calm - 10SM
05:35
Clear
52°F / 11°C 46°F / 8°C 82% 29.74 in
(1007 mb)
N 3.5 mph
(N 6 kph)
- 10SM
05:15
Clear
52°F / 11°C 45°F / 7°C 77% 29.74 in
(1007 mb)
N 3.5 mph
(N 6 kph)
- 10SM
04:55
Clear
52°F / 11°C 46°F / 8°C 82% 29.71 in
(1006 mb)
NNE 4.6 mph
(NNE 7 kph)
- 10SM
04:35
Clear
54°F / 12°C 45°F / 7°C 72% 29.71 in
(1006 mb)
Calm - 10SM
04:15
Clear
55°F / 13°C 45°F / 7°C 67% 29.71 in
(1006 mb)
NNW 3.5 mph
(NNW 6 kph)
- 10SM
03:55
Clear
55°F / 13°C 36°F / 2°C 47% 29.71 in
(1006 mb)
Calm - 10SM
03:35
Clear
57°F / 14°C 37°F / 3°C 48% 29.68 in
(1005 mb)
Calm - 10SM
03:15
Clear
57°F / 14°C 36°F / 2°C 44% 29.68 in
(1005 mb)
Calm - 10SM
02:55
Clear
57°F / 14°C 39°F / 4°C 51% 29.68 in
(1005 mb)
Calm - 10SM
02:35
Clear
59°F / 15°C 39°F / 4°C 48% 29.68 in
(1005 mb)
Calm - 10SM
02:15
Clear
61°F / 16°C 41°F / 5°C 48% 29.65 in
(1004 mb)
Calm - 10SM
01:55
Clear
61°F / 16°C 41°F / 5°C 48% 29.65 in
(1004 mb)
Calm - 10SM
01:35
Clear
64°F / 18°C 41°F / 5°C 43% 29.65 in
(1004 mb)
Calm - 10SM
01:15
Clear
64°F / 18°C 41°F / 5°C 43% 29.65 in
(1004 mb)
Calm - 10SM
00:55
Partly Cloudy
64°F / 18°C 45°F / 7°C 49% 29.65 in
(1004 mb)
NW 5.8 mph
(NW 9 kph)
- 10SM
00:35
Partly Cloudy
61°F / 16°C 50°F / 10°C 68% 29.65 in
(1004 mb)
Calm - 10SM
00:15
Clear
61°F / 16°C 52°F / 11°C 72% 29.65 in
(1004 mb)
Calm - 10SM
Time Weather Temperature Dewpoint Humidity Pressure Winds Precip Visibility


Weather for websites

WeatherForYou.com, LLC is not responsible for any damages or problems caused by this service. Current weather conditions are obtained from the closest station including government and personal stations which may have varying degrees of accuracy. Weather forecasts are derived from the NOAA NDFD. Like all things, this site belongs to Jesus Christ... He just trusts me to maintain it. If you have any questions or comments email webmaster@weatherforyou.com

Copyright © 2014, WeatherForYou.com LLC. All rights reserved.